This demonstration page uses our WeatherBlox Daily Observations layout. Learn more.

Left ArrowRight Arrow

Hourly Observations for July 21, 2022

Temp ( °F °C ) Dew Point ( °F °C ) Humidity (%) Winds ( mph kmh ) Pressure ( in mb ) Visibility ( mi km ) Precip ( " mm )
12:53 am 00:53 Clear 94 34.4 65 18.3 38 38 S 13 20 29.81 1010 10 16 0.00 0.00
1:53 am 01:53 Mostly Cloudy 93 33.9 69 20.6 46 46 SSW 12 19 29.82 1010 10 16 0.00 0.00
2:53 am 02:53 Cloudy 91 32.8 70 21.1 50 50 SSW 13 20 29.81 1010 10 16 0.00 0.00
3:53 am 03:53 Partly Cloudy 90 32.2 70 21.1 52 52 SSW 12 19 29.81 1010 10 16 0.00 0.00
4:53 am 04:53 Cloudy with Light Rain 88 31.1 70 21.1 55 55 SW 9 15 29.83 1010 10 16 0.00 0.00
5:53 am 05:53 Mostly Cloudy 86 30 71 21.7 61 61 SSW 7 11 29.86 1011 10 16 0.00 0.00
6:53 am 06:53 Mostly Cloudy 85 29.4 72 22.2 65 65 SSW 7 11 29.88 1012 10 16 0.00 0.00
7:53 am 07:53 Mostly Cloudy 85 29.4 72 22.2 65 65 SSW 8 13 29.90 1012 10 16 0.00 0.00
8:53 am 08:53 Mostly Cloudy 86 30 71 21.7 61 61 SW 12 19 29.92 1013 10 16 0.00 0.00
9:53 am 09:53 Cloudy 86 30 72 22.2 63 63 SSW 8 13 29.93 1014 10 16 0.00 0.00
10:53 am 10:53 Mostly Cloudy 90 32.2 72 22.2 56 56 VRB 3 6 29.93 1014 10 16 0.00 0.00
11:53 am 11:53 Cloudy 94 34.4 71 21.7 48 48 VRB 3 6 29.93 1014 10 16 0.00 0.00
12:53 pm 12:53 Cloudy 95 35 72 22.2 47 47 VRB 7 11 29.92 1013 10 16 0.00 0.00
1:53 pm 13:53 Cloudy 97 36.1 71 21.7 43 43 VRB 5 7 29.91 1013 10 16 0.00 0.00
2:53 pm 14:53 Mostly Cloudy 99 37.2 68 20 37 37 undefined N/A 29.89 1012 10 16 0.00 0.00
3:53 pm 15:53 Mostly Cloudy 99 37.2 68 20 37 37 E 8 13 29.88 1012 10 16 0.00 0.00
4:53 pm 16:53 Mostly Cloudy 99 37.2 71 21.7 41 41 E 13 20 29.85 1011 10 16 0.00 0.00
5:53 pm 17:53 Mostly Cloudy 100 37.8 64 17.8 31 31 Calm 29.82 1010 10 16 0.00 0.00
6:53 pm 18:53 Sunny 100 37.8 65 18.3 32 32 SE 14 22 29.82 1010 10 16 0.00 0.00
7:53 pm 19:53 Mostly Cloudy 98 36.7 66 18.9 35 35 SE 8 13 29.85 1011 10 16 0.00 0.00
8:53 pm 20:53 Mostly Cloudy 97 36.1 64 17.8 34 34 ESE 12 19 29.86 1011 10 16 0.00 0.00
9:53 pm 21:53 Mostly Cloudy 95 35 64 17.8 36 36 ESE 7 11 29.88 1012 10 16 0.00 0.00
10:53 pm 22:53 Mostly Cloudy 90 32.2 71 21.7 54 54 E 13 20 29.89 1012 10 16 0.00 0.00
11:53 pm 23:53 Mostly Cloudy 88 31.1 70 21.1 55 55 E 10 17 29.91 1013 10 16 0.00 0.00

Powered by AerisWeather